User: anonymous   Login
Location: Caltech
(34.1382°N, 118.1253°W)
Time: 14:54:38
(UTC-07:00)
Language:

NOAA 19 - Orbit

View from above orbital plane
View from above orbital plane
View from above satellite
View from above satellite

Ground track
Ground track

The orbit data is extracted from the following two-line orbital elements,

1 33591U 09005A   16181.55836725  .00000052  00000-0  53061-4 0  9999
2 33591  99.0408 138.4331 0013861 179.8628 180.2549 14.12084720380881
Epoch (UTC): 29 June 2016 13:24:02
Eccentricity: 0.0013861
inclination: 99.0408°
perigee height: 842 km
apogee height: 862 km
right ascension of ascending node: 138.4331°
argument of perigee: 179.8628°
revolutions per day: 14.12084720
mean anomaly at epoch: 180.2549°
orbit number at epoch: 38088

The dashed part of the orbit path shows where the satellite is in the earth's shadow,  

DLR